{"data":{"norad_id":67148,"epoch":"2026-09-20T08:20:27.652128Z","epoch_age_seconds":119271,"freshness":"FRESH","line1":"1 67148U 25301R   26263.34754227  .00001589  00000+0  23746-3 0  9997","line2":"2 67148  51.8990 284.8669 0000491  66.5117 293.5897 14.79929345 42555","mean_motion":14.79929345,"eccentricity":4.91e-5,"inclination_deg":51.899,"raan_deg":284.8669,"arg_perigee_deg":66.5117,"mean_anomaly_deg":293.5897,"bstar":0.00023746,"rev_number":4255,"period_min":97.301942478882,"perigee_km":629.20308983542,"apogee_km":629.89124442063,"semimajor_km":7007.684167128,"source":"CELESTRAK","updated_at":"2026-09-21T09:00:16.458460Z"}}